KA1ROH Weather Reports


time (UTC)temp
C
wind
direction
speed
KPH
gust
KPH
rain 1hr
cm
rain 24hr
cm
rain mn
cm
humidity
%
barometer
mb
20260506231857 7 351 3.2 6.4 0.00 1.04 0.99 92 1008.1
20260506230856 7 6 3.2 8.0 0.00 1.04 0.99 92 1007.8
20260506225855 7 348 3.2 9.7 0.00 1.04 0.99 93 1007.8
20260506224855 7 356 4.8 9.7 0.00 1.04 0.99 93 1007.8
20260506223854 7 352 4.8 9.7 0.00 1.04 0.99 93 1008.1
20260506222854 7 4 6.4 12.9 0.00 1.04 0.99 93 1008.1
20260506221853 7 351 6.4 12.9 0.00 1.04 0.99 93 1008.1
20260506220852 7 2 6.4 11.3 0.00 1.04 0.99 92 1008.1
20260506215851 7 335 4.8 12.9 0.00 1.04 0.99 92 1008.1
20260506214851 7 336 6.4 12.9 0.00 1.04 0.99 92 1008.1
20260506213850 7 353 8.0 12.9 0.00 1.04 0.99 94 1008.1
20260506212818 7 9 4.8 12.9 0.00 1.04 0.99 94 1007.8
20260506211747 7 355 6.4 12.9 0.00 1.04 0.99 94 1007.8
20260506210746 7 354 6.4 12.9 0.03 1.04 0.99 94 1007.8
20260506205745 7 10 8.0 11.3 0.03 1.04 0.99 94 1007.8
20260506204745 7 4 6.4 17.7 0.03 1.04 0.99 94 1008.1
20260506203744 7 339 8.0 17.7 0.03 1.04 0.99 94 1008.1
20260506202743 7 348 9.7 17.7 0.05 1.04 0.99 94 1008.1
20260506201742 7 352 8.0 16.1 0.05 1.04 0.99 94 1008.1
20260506200741 7 344 9.7 17.7 0.03 1.02 0.97 94 1007.8
20260506195710 7 351 9.7 17.7 0.03 1.04 0.97 94 1007.8
20260506194709 7 333 9.7 16.1 0.03 1.04 0.97 94 1007.8
20260506193708 7 336 9.7 14.5 0.03 1.04 0.97 94 1007.8
20260506192708 7 335 9.7 16.1 0.00 1.02 0.94 94 1007.8
20260506191707 6 337 9.7 16.1 0.03 1.02 0.94 95 1007.8
20260506190706 6 335 11.3 16.1 0.03 1.02 0.94 95 1007.5
20260506185706 6 342 8.0 16.1 0.03 1.02 0.94 95 1007.8
20260506184705 6 335 12.9 16.1 0.03 1.04 0.94 95 1007.8
20260506183704 6 332 8.0 11.3 0.03 1.04 0.94 95 1007.8
20260506182704 6 353 3.2 12.9 0.00 1.04 0.94 95 1008.1
20260506181703 6 1 8.0 14.5 0.03 1.17 0.91 95 1008.1
20260506180702 6 1 8.0 17.7 0.03 1.17 0.91 95 1008.1
20260506175702 6 2 9.7 17.7 0.05 1.17 0.91 95 1008.5
20260506174701 6 335 12.9 16.1 0.05 1.17 0.91 95 1008.5
20260506173700 6 330 9.7 14.5 0.08 1.17 0.91 95 1008.5
20260506172629 6 345 8.0 14.5 0.08 1.17 0.91 95 1008.8
20260506171628 6 336 8.0 14.5 0.10 1.14 0.89 95 1008.5
20260506170627 6 7 9.7 14.5 0.13 1.14 0.89 95 1008.8
20260506165627 6 4 9.7 14.5 0.13 1.12 0.86 95 1008.5
20260506164626 6 11 6.4 12.9 0.15 1.12 0.86 95 1008.8
20260506163625 6 349 6.4 12.9 0.15 1.09 0.84 95 1009.1
20260506162625 6 345 6.4 16.1 0.18 1.09 0.84 95 1009.1
20260506161624 6 8 8.0 17.7 0.15 1.04 0.79 95 1008.8
20260506160623 6 8 11.3 22.5 0.18 1.02 0.76 95 1009.1
20260506155623 6 2 11.3 22.5 0.18 0.99 0.74 95 1009.1
20260506154622 6 353 9.7 20.9 0.18 0.97 0.71 95 1009.1
20260506153621 6 346 12.9 24.1 0.18 0.94 0.69 95 1009.5
20260506152621 6 352 11.3 24.1 0.13 0.89 0.64 94 1009.5
20260506151518 6 357 8.0 22.5 0.10 0.86 0.61 94 1009.5
20260506150447 6 333 9.7 17.7 0.10 0.84 0.58 94 1009.1
20260506145446 6 330 9.7 19.3 0.10 0.81 0.56 94 1009.1
20260506144446 6 358 11.3 19.3 0.10 0.79 0.53 94 1008.8
20260506143445 7 340 9.7 19.3 0.08 0.76 0.51 95 1009.1
20260506142444 7 348 9.7 19.3 0.08 0.76 0.51 94 1009.1
20260506141443 7 339 8.0 17.7 0.05 0.74 0.51 94 1009.1
20260506140443 7 337 11.3 14.5 0.05 0.74 0.48 93 1009.1
20260506135442 7 333 6.4 16.1 0.05 0.71 0.46 93 1009.1
20260506134410 7 349 6.4 16.1 0.05 0.69 0.43 93 1009.1
20260506133410 7 2 9.7 16.1 0.05 0.69 0.43 92 1008.8
20260506132409 7 4 9.7 16.1 0.08 0.69 0.43 92 1009.1
20260506131408 7 3 9.7 16.1 0.10 0.69 0.43 91 1009.5
20260506130408 7 14 4.8 14.5 0.10 0.69 0.43 91 1009.5
20260506125336 7 358 8.0 14.5 0.10 0.66 0.41 91 1009.5
20260506124335 7 9 8.0 16.1 0.10 0.64 0.38 90 1009.5
20260506123335 7 3 11.3 16.1 0.10 0.64 0.38 90 1009.5
20260506122334 7 25 4.8 16.1 0.10 0.61 0.36 90 1009.5
20260506121333 7 15 8.0 19.3 0.10 0.58 0.33 89 1009.5
20260506120333 8 355 12.9 19.3 0.10 0.58 0.33 88 1009.8
20260506115332 8 357 9.7 14.5 0.08 0.56 0.30 90 1010.2
20260506114331 8 357 6.4 11.3 0.05 0.53 0.28 91 1009.8
20260506113331 8 18 3.2 9.7 0.08 0.53 0.28 91 1009.8
20260506112330 8 351 4.8 6.4 0.05 0.51 0.25 91 1009.8
20260506111329 8 5 1.6 1.6 0.03 0.48 0.23 91 1009.5
20260506110226 8 83 1.6 3.2 0.03 0.48 0.23 91 1009.1
20260506105154 8 77 0.0 3.2 0.03 0.48 0.23 90 1009.1
20260506104154 8 96 1.6 4.8 0.03 0.48 0.23 90 1008.8
20260506103153 8 98 0.0 6.4 0.03 0.46 0.20 89 1009.5
20260506102153 8 57 1.6 6.4 0.03 0.46 0.20 90 1009.1
20260506101050 8 64 1.6 4.8 0.05 0.46 0.20 92 1009.1
20260506100049 8 95 0.0 6.4 0.13 0.46 0.20 92 1009.5
20260506095048 8 69 3.2 6.4 0.13 0.46 0.20 91 1008.8
20260506094048 8 49 0.0 6.4 0.13 0.46 0.20 90 1009.1
20260506093047 9 46 3.2 6.4 0.10 0.43 0.18 89 1009.1
20260506092016 9 95 1.6 9.7 0.10 0.43 0.18 88 1009.1
20260506091015 10 68 3.2 9.7 0.08 0.41 0.15 87 1009.1
20260506090014 10 55 3.2 6.4 0.03 0.33 0.08 86 1009.1
20260506085014 10 51 0.0 3.2 0.03 0.33 0.08 83 1009.5
20260506084013 10 109 1.6 4.8 0.03 0.33 0.08 85 1009.1
20260506083012 10 105 1.6 9.7 0.03 0.33 0.08 85 1009.1
20260506082011 10 27 4.8 12.9 0.03 0.33 0.08 84 1009.1
20260506080939 10 21 4.8 12.9 0.03 0.33 0.08 83 1009.1
20260506072935 11 103 1.6 9.7 0.00 0.30 0.05 86 1008.5
20260506071935 11 70 0.0 9.7 0.00 0.30 0.05 85 1009.1
20260506070934 11 16 1.6 3.2 0.00 0.30 0.05 87 1008.8
20260506061931 11 84 3.2 6.4 0.00 0.30 0.05 91 1008.5
20260506060930 11 108 1.6 3.2 0.00 0.30 0.05 92 1008.8
20260506050824 11 117 0.0 3.2 0.05 0.30 0.05 92 1008.8
20260506044823 11 114 1.6 6.4 0.08 0.30 0.05 92 1009.1
20260506043822 12 87 3.2 6.4 0.08 0.30 0.05 91 1008.1
20260506042821 12 111 1.6 6.4 0.05 0.28 0.03 89 1008.5
20260506041821 12 112 3.2 6.4 0.05 0.28 0.03 89 1008.1
20260506040820 12 127 1.6 4.8 0.03 0.25 0.00 90 1008.1
20260506035819 12 136 1.6 4.8 0.05 0.25 0.25 87 1008.1
20260506034716 12 129 3.2 8.0 0.03 0.23 0.23 82 1007.8
20260506033715 13 115 1.6 11.3 0.03 0.23 0.23 76 1007.8
20260506032715 13 328 4.8 11.3 0.03 0.23 0.23 74 1007.5
20260506031714 13 354 1.6 20.9 0.03 0.23 0.23 74 1007.5
20260506030642 14 297 8.0 20.9 0.03 0.23 0.23 70 1007.1
20260506025642 13 291 4.8 12.9 0.00 0.20 0.20 73 1007.5
20260506024641 14 292 9.7 14.5 0.00 0.20 0.20 69 1007.1
20260506023609 13 268 3.2 14.5 0.00 0.20 0.20 70 1007.1
20260506022608 14 296 9.7 14.5 0.00 0.20 0.20 69 1006.8
20260506021608 14 295 9.7 19.3 0.00 0.20 0.20 69 1007.1
20260506020607 15 301 9.7 19.3 0.00 0.20 0.20 69 1007.1
20260506015535 15 296 12.9 25.7 0.00 0.20 0.20 70 1007.1
20260506014504 16 292 16.1 30.6 0.00 0.20 0.20 69 1007.1
20260506013503 15 295 24.1 30.6 0.00 0.20 0.20 76 1006.8
20260506012431 16 87 1.6 6.4 0.00 0.20 0.20 80 1006.1
20260506011430 16 141 1.6 1.6 0.00 0.20 0.20 83 1005.4
20260506010429 17 141 0.0 1.6 0.00 0.20 0.20 82 1005.4
20260506005429 17 141 0.0 1.6 0.00 0.20 0.20 80 1005.1
20260506004429 17 197 1.6 1.6 0.00 0.20 0.20 79 1005.1
20260506003428 17 165 1.6 3.2 0.00 0.20 0.20 79 1004.7
20260506002427 17 151 1.6 3.2 0.00 0.20 0.20 78 1004.7
20260506001427 17 145 1.6 8.0 0.00 0.20 0.20 77 1004.4
20260506000426 18 140 1.6 8.0 0.00 0.20 0.20 77 1004.4
20260505235425 18 185 1.6 4.8 0.00 0.20 0.20 78 1004.4
20260505234424 18 231 1.6 4.8 0.00 0.20 0.20 76 1004.1
20260505233424 18 236 1.6 4.8 0.00 0.20 0.20 77 1004.1
20260505232423 18 195 1.6 4.8 0.00 0.20 0.20 77 1004.1